,,,PA_Meas_PMT16A,,PR_Meas_QMR101_102,,RH_Meas_QMH101,,SR_Meas_QMS101,,TA_Meas_QMH101,,GenWind,,GenWind,
date,time,status,PA,status,PR,status,RH,status,SR,status,TA,status,DirAvg,status,SpdAvg,
2010-10-12, 00:00:04,VALID,1006.46,VALID,0,VALID,63.991,VALID,922.967,VALID,29.8818,VALID,115,VALID,1.40742,
2010-10-12, 00:01:04,VALID,1006.43,VALID,0,VALID,62.8086,VALID,295.454,VALID,29.9208,VALID,156,VALID,3.42461,
2010-10-12, 00:02:04,VALID,1006.47,VALID,0,VALID,63.93,VALID,938.252,VALID,29.767,VALID,133,VALID,3.0832,
2010-10-12, 00:03:04,VALID,1006.46,VALID,0,VALID,66.0661,VALID,929.704,VALID,29.8038,VALID,140,VALID,2.25,
2010-10-12, 00:04:04,VALID,1006.42,VALID,0,VALID,65.288,VALID,900.742,VALID,29.8795,VALID,52,VALID,1.43867,
2010-10-12, 00:05:04,VALID,1006.49,VALID,0,VALID,65.2651,VALID,850.662,VALID,30.0573,VALID,79,VALID,1.20547,
2010-10-12, 00:06:04,VALID,1006.43,VALID,0,VALID,63.0146,VALID,898.932,VALID,30.1135,VALID,54,VALID,1.50977,
2010-10-12, 00:07:04,VALID,1006.39,VALID,0,VALID,64.8684,VALID,871.981,VALID,30.211,VALID,127,VALID,1.76211,
2010-10-12, 00:08:04,VALID,1006.41,VALID,0,VALID,63.2663,VALID,971.84,VALID,30.2328,VALID,99,VALID,2.20898,
2010-10-12, 00:09:04,VALID,1006.31,VALID,0,VALID,61.7939,VALID,962.387,VALID,30.1938,VALID,62,VALID,1.45703,
2010-10-12, 00:10:04,VALID,1006.33,VALID,0,VALID,63.457,VALID,969.025,VALID,30.3499,VALID,142,VALID,1.97656,
2010-10-12, 00:11:04,VALID,1006.32,VALID,0,VALID,62.1601,VALID,953.538,VALID,30.4474,VALID,137,VALID,1.9832,
2010-10-12, 00:12:04,VALID,1006.26,VALID,0,VALID,62.0228,VALID,971.539,VALID,30.3304,VALID,144,VALID,2.1918,
2010-10-12, 00:13:04,VALID,1006.28,VALID,0,VALID,62.4195,VALID,975.159,VALID,30.3499,VALID,135,VALID,0.860937,
2010-10-12, 00:14:04,VALID,1006.25,VALID,0,VALID,64.2199,VALID,956.555,VALID,30.3086,VALID,102,VALID,2.27578,
2010-10-12, 00:15:04,VALID,1006.24,VALID,0,VALID,61.8702,VALID,937.347,VALID,30.3109,VALID,135,VALID,3.27891,
2010-10-12, 00:16:04,VALID,1006.27,VALID,0,VALID,65.5855,VALID,937.448,VALID,30.1938,VALID,119,VALID,2.16211,
2010-10-12, 00:17:04,VALID,1006.21,VALID,0,VALID,62.8849,VALID,919.346,VALID,30.2718,VALID,128,VALID,1.60781,
2010-10-12, 00:18:04,VALID,1006.29,VALID,0,VALID,60.0927,VALID,930.71,VALID,30.3694,VALID,110,VALID,2.31953,
2010-10-12, 00:19:04,VALID,1006.21,VALID,0,VALID,59.8028,VALID,943.482,VALID,30.2523,VALID,124,VALID,2.04102,
2010-10-12, 00:20:04,VALID,1006.21,VALID,0,VALID,60.8251,VALID,951.225,VALID,30.3109,VALID,86,VALID,2.20508,
2010-10-12, 00:21:04,VALID,1006.2,VALID,0,VALID,61.1531,VALID,936.945,VALID,30.2718,VALID,143,VALID,2.93633,
2010-10-12, 00:22:04,VALID,1006.19,VALID,0,VALID,60.6649,VALID,944.487,VALID,30.1961,VALID,136,VALID,2.75234,
2010-10-12, 00:23:04,VALID,1006.16,VALID,0,VALID,61.9618,VALID,939.66,VALID,30.1938,VALID,88,VALID,2.48867,
2010-10-12, 00:24:04,VALID,1006.19,VALID,0,VALID,61.8473,VALID,925.581,VALID,30.2936,VALID,107,VALID,3.27773,
2010-10-12, 00:25:04,VALID,1006.15,VALID,0,VALID,61.9541,VALID,927.492,VALID,30.3109,VALID,164,VALID,3.20273,
2010-10-12, 00:26:04,VALID,1006.18,VALID,0,VALID,62.8009,VALID,915.324,VALID,30.3327,VALID,137,VALID,1.83945,
2010-10-12, 00:27:04,VALID,1006.16,VALID,0,VALID,61.1226,VALID,922.564,VALID,30.2546,VALID,154,VALID,3.51758,
2010-10-12, 00:28:04,VALID,1006.13,VALID,0,VALID,63.9453,VALID,957.862,VALID,30.1961,VALID,173,VALID,3.71133,
2010-10-12, 00:29:04,VALID,1006.16,VALID,0,VALID,62.7552,VALID,943.582,VALID,30.1353,VALID,142,VALID,3.20937,
2010-10-12, 00:30:04,VALID,1006.16,VALID,0,VALID,64.4183,VALID,944.789,VALID,30.0986,VALID,138,VALID,2.52852,
2010-10-12, 00:31:04,VALID,1006.15,VALID,0,VALID,65.0667,VALID,946.498,VALID,30.1181,VALID,144,VALID,2.53437,
2010-10-12, 00:32:04,VALID,1006.14,VALID,0,VALID,62.5263,VALID,931.615,VALID,30.2156,VALID,157,VALID,3.2875,
2010-10-12, 00:33:04,VALID,1006.15,VALID,0,VALID,61.8244,VALID,938.554,VALID,30.0573,VALID,128,VALID,3.20664,
2010-10-12, 00:34:04,VALID,1006.13,VALID,0,VALID,64.5022,VALID,946.498,VALID,30.0573,VALID,128,VALID,1.90078,
2010-10-12, 00:35:04,VALID,1006.08,VALID,0,VALID,64.4717,VALID,941.47,VALID,30.1743,VALID,150,VALID,1.6,
2010-10-12, 00:36:04,VALID,1006.03,VALID,0,VALID,66.1729,VALID,952.432,VALID,30.3327,VALID,145,VALID,1.56719,
2010-10-12, 00:37:04,VALID,1006.04,VALID,0,VALID,64.4564,VALID,947.705,VALID,30.6034,VALID,119,VALID,2.40469,
2010-10-12, 00:38:04,VALID,1005.99,VALID,0,VALID,62.0991,VALID,924.073,VALID,30.6448,VALID,109,VALID,2.37188,
2010-10-12, 00:39:04,VALID,1006.01,VALID,0,VALID,61.4964,VALID,900.943,VALID,30.6838,VALID,123,VALID,3.58516,
2010-10-12, 00:40:04,VALID,1006,VALID,0,VALID,60.9624,VALID,921.056,VALID,30.4474,VALID,116,VALID,3.55703,
2010-10-12, 00:41:04,VALID,1006,VALID,0,VALID,60.2148,VALID,202.132,VALID,30.3499,VALID,124,VALID,2.90352,
2010-10-12, 00:42:04,VALID,1006,VALID,0,VALID,62.3585,VALID,904.966,VALID,30.3132,VALID,109,VALID,2.88867,
2010-10-12, 00:43:04,VALID,1005.95,VALID,0,VALID,62.7552,VALID,820.393,VALID,30.1158,VALID,109,VALID,2.33398,
2010-10-12, 00:44:04,VALID,1005.92,VALID,0,VALID,64.2733,VALID,934.33,VALID,30.2936,VALID,121,VALID,2.10859,
2010-10-12, 00:45:04,VALID,1005.89,VALID,0,VALID,60.7335,VALID,907.581,VALID,30.2913,VALID,111,VALID,2.6293,
2010-10-12, 00:46:04,VALID,1005.88,VALID,0,VALID,59.284,VALID,917.134,VALID,30.2718,VALID,122,VALID,3.29648,
2010-10-12, 00:47:04,VALID,1005.87,VALID,0,VALID,62.8925,VALID,908.083,VALID,30.2936,VALID,132,VALID,2.57148,
2010-10-12, 00:48:04,VALID,1005.87,VALID,0,VALID,62.0609,VALID,915.626,VALID,30.2328,VALID,124,VALID,3.125,
2010-10-12, 00:49:04,VALID,1005.83,VALID,0,VALID,61.0005,VALID,924.073,VALID,30.3304,VALID,101,VALID,1.98867,
2010-10-12, 00:50:04,VALID,1005.81,VALID,0,VALID,60.9471,VALID,925.682,VALID,30.4669,VALID,88,VALID,1.84492,
2010-10-12, 00:51:04,VALID,1005.79,VALID,0,VALID,62.1754,VALID,929.503,VALID,30.5059,VALID,122,VALID,1.30859,
2010-10-12, 00:52:04,VALID,1005.77,VALID,0,VALID,61.1073,VALID,941.37,VALID,30.7205,VALID,135,VALID,1.45469,
2010-10-12, 00:53:04,VALID,1005.76,VALID,0,VALID,61.7863,VALID,922.464,VALID,30.6424,VALID,139,VALID,2.15,
2010-10-12, 00:54:04,VALID,1005.75,VALID,0,VALID,62.8238,VALID,909.793,VALID,30.7205,VALID,99,VALID,2.08477,
2010-10-12, 00:55:04,VALID,1005.73,VALID,0,VALID,61.7405,VALID,895.111,VALID,30.7033,VALID,95,VALID,1.20664,
2010-10-12, 00:56:04,VALID,1005.69,VALID,0,VALID,62.7323,VALID,856.293,VALID,30.701,VALID,135,VALID,1.99844,
2010-10-12, 00:57:04,VALID,1005.69,VALID,0,VALID,62.8391,VALID,817.476,VALID,30.9569,VALID,127,VALID,2.36328,
2010-10-12, 00:58:04,VALID,1005.68,VALID,0,VALID,60.6191,VALID,782.078,VALID,30.8765,VALID,103,VALID,1.77188,
2010-10-12, 00:59:04,VALID,1005.71,VALID,0,VALID,59.0018,VALID,769.407,VALID,30.8375,VALID,88,VALID,1.85156,
2010-10-12, 01:00:04,VALID,1005.7,VALID,0,VALID,61.71,VALID,748.188,VALID,30.74,VALID,109,VALID,2.20273,
2010-10-12, 01:01:04,VALID,1005.67,VALID,0,VALID,61.3667,VALID,802.392,VALID,30.74,VALID,132,VALID,2.1332,
2010-10-12, 01:02:04,VALID,1005.72,VALID,0,VALID,60.7717,VALID,868.864,VALID,30.5839,VALID,137,VALID,3.26016,
2010-10-12, 01:03:04,VALID,1005.72,VALID,0,VALID,60.1003,VALID,947.001,VALID,30.5644,VALID,110,VALID,1.98398,
2010-10-12, 01:04:04,VALID,1005.64,VALID,0,VALID,62.3661,VALID,960.477,VALID,30.4084,VALID,123,VALID,2.275,
2010-10-12, 01:05:04,VALID,1005.59,VALID,0,VALID,60.8251,VALID,982.701,VALID,30.4279,VALID,62,VALID,1.24805,
2010-10-12, 01:06:04,VALID,1005.65,VALID,0,VALID,62.0762,VALID,1001.51,VALID,30.5082,VALID,115,VALID,3.03477,
2010-10-12, 01:07:04,VALID,1005.6,VALID,0,VALID,61.9999,VALID,997.886,VALID,30.4084,VALID,114,VALID,2.47031,
2010-10-12, 01:08:04,VALID,1005.58,VALID,0,VALID,62.7247,VALID,982.802,VALID,30.3694,VALID,144,VALID,1.3625,
2010-10-12, 01:09:04,VALID,1005.56,VALID,0,VALID,63.3655,VALID,988.031,VALID,30.5059,VALID,153,VALID,2.75898,
2010-10-12, 01:10:04,VALID,1005.6,VALID,0,VALID,61.1989,VALID,1007.64,VALID,30.4864,VALID,98,VALID,1.94648,
2010-10-12, 01:11:04,VALID,1005.52,VALID,0,VALID,61.6642,VALID,1008.14,VALID,30.5862,VALID,99,VALID,2.21211,
2010-10-12, 01:12:04,VALID,1005.6,VALID,0,VALID,60.497,VALID,1011.16,VALID,30.7033,VALID,125,VALID,3.05117,
2010-10-12, 01:13:04,VALID,1005.53,VALID,0,VALID,60.3978,VALID,1015.59,VALID,30.4864,VALID,90,VALID,1.89531,
2010-10-12, 01:14:04,VALID,1005.56,VALID,0,VALID,57.7049,VALID,1011.66,VALID,30.6815,VALID,122,VALID,3.06367,
2010-10-12, 01:15:04,VALID,1005.53,VALID,0,VALID,59.0323,VALID,1013.88,VALID,30.6424,VALID,87,VALID,2.07539,
2010-10-12, 01:16:04,VALID,1005.48,VALID,0,VALID,60.9319,VALID,1017.09,VALID,30.7595,VALID,182,VALID,1.24141,
2010-10-12, 01:17:04,VALID,1005.45,VALID,0,VALID,57.9337,VALID,1005.83,VALID,30.8375,VALID,149,VALID,0.970312,
2010-10-12, 01:18:04,VALID,1005.43,VALID,0,VALID,58.338,VALID,1011.06,VALID,30.8594,VALID,95,VALID,3.24023,
2010-10-12, 01:19:04,VALID,1005.47,VALID,0,VALID,59.5434,VALID,1018.4,VALID,30.818,VALID,96,VALID,2.98398,
2010-10-12, 01:20:04,VALID,1005.45,VALID,0,VALID,62.183,VALID,1020.51,VALID,30.7033,VALID,112,VALID,2.45508,
2010-10-12, 01:21:04,VALID,1005.46,VALID,0,VALID,60.2224,VALID,1016.49,VALID,30.6838,VALID,136,VALID,3.1707,
2010-10-12, 01:22:04,VALID,1005.39,VALID,0,VALID,60.8861,VALID,1018.1,VALID,30.7618,VALID,116,VALID,1.96367,
2010-10-12, 01:23:04,VALID,1005.36,VALID,0,VALID,61.3591,VALID,1016.79,VALID,30.818,VALID,146,VALID,2.13125,
2010-10-12, 01:24:04,VALID,1005.36,VALID,0,VALID,58.6508,VALID,1019.31,VALID,30.7985,VALID,126,VALID,2.7875,
2010-10-12, 01:25:04,VALID,1005.32,VALID,0,VALID,60.703,VALID,893.602,VALID,30.8789,VALID,137,VALID,1.38555,
2010-10-12, 01:26:04,VALID,1005.27,VALID,0,VALID,56.6978,VALID,1094.02,VALID,30.7033,VALID,102,VALID,1.26992,
2010-10-12, 01:27:04,VALID,1005.21,VALID,0,VALID,61.5498,VALID,1119.77,VALID,30.7595,VALID,7,VALID,0.892578,
2010-10-12, 01:28:04,VALID,1005.25,VALID,0,VALID,62.4271,VALID,1054.2,VALID,31.113,VALID,119,VALID,2.01602,
2010-10-12, 01:29:04,VALID,1005.24,VALID,0,VALID,56.8809,VALID,1029.36,VALID,30.9936,VALID,121,VALID,2.97031,
2010-10-12, 01:30:04,VALID,1005.2,VALID,0,VALID,59.0933,VALID,1017.4,VALID,31.0154,VALID,128,VALID,2.09687,
2010-10-12, 01:31:04,VALID,1005.2,VALID,0,VALID,57.4912,VALID,1013.47,VALID,30.9741,VALID,120,VALID,1.56641,
2010-10-12, 01:32:04,VALID,1005.2,VALID,0,VALID,59.963,VALID,1011.86,VALID,31.0521,VALID,135,VALID,2.98633,
2010-10-12, 01:33:04,VALID,1005.17,VALID,0,VALID,56.9877,VALID,1015.08,VALID,31.0911,VALID,125,VALID,1.33047,
2010-10-12, 01:34:04,VALID,1005.14,VALID,0,VALID,60.9014,VALID,1043.24,VALID,30.9351,VALID,134,VALID,1.80859,
2010-10-12, 01:35:04,VALID,1005.1,VALID,0,VALID,57.1556,VALID,1047.56,VALID,31.0545,VALID,96,VALID,1.7668,
2010-10-12, 01:36:04,VALID,1005.09,VALID,0,VALID,56.8199,VALID,1018.5,VALID,30.9764,VALID,131,VALID,4.13828,
2010-10-12, 01:37:04,VALID,1005.09,VALID,0,VALID,56.324,VALID,1010.05,VALID,30.8375,VALID,138,VALID,3.14648,
2010-10-12, 01:38:04,VALID,1005.1,VALID,0,VALID,54.1269,VALID,1012.97,VALID,30.8399,VALID,131,VALID,4.20313,
2010-10-12, 01:39:04,VALID,1005.09,VALID,0,VALID,54.8974,VALID,1019,VALID,30.8594,VALID,132,VALID,2.77773,
2010-10-12, 01:40:04,VALID,1005.09,VALID,0,VALID,56.3774,VALID,1014.88,VALID,30.8375,VALID,117,VALID,2.15625,
2010-10-12, 01:41:04,VALID,1005.05,VALID,0,VALID,59.2001,VALID,1017.29,VALID,30.7595,VALID,118,VALID,1.54883,
2010-10-12, 01:42:04,VALID,1005.07,VALID,0,VALID,59.1315,VALID,1016.19,VALID,30.6424,VALID,122,VALID,2.08242,
2010-10-12, 01:43:04,VALID,1005.05,VALID,0,VALID,58.9789,VALID,1011.76,VALID,30.7033,VALID,133,VALID,2.21523,
2010-10-12, 01:44:04,VALID,1005.07,VALID,0,VALID,59.017,VALID,1025.84,VALID,30.8375,VALID,142,VALID,2.98125,
2010-10-12, 01:45:04,VALID,1005,VALID,0,VALID,59.7494,VALID,1020.01,VALID,30.7595,VALID,129,VALID,1.41016,
2010-10-12, 01:46:04,VALID,1005,VALID,0,VALID,61.2981,VALID,1010.05,VALID,30.9741,VALID,305,VALID,0.595312,
2010-10-12, 01:47:04,VALID,1004.98,VALID,0,VALID,58.1626,VALID,1007.24,VALID,31.1692,VALID,179,VALID,2.84063,
2010-10-12, 01:48:04,VALID,1005.01,VALID,0,VALID,57.9947,VALID,1017.09,VALID,31.1325,VALID,121,VALID,1.57617,
2010-10-12, 01:49:04,VALID,1005,VALID,0,VALID,57.7583,VALID,1032.38,VALID,31.1106,VALID,170,VALID,2.40703,
2010-10-12, 01:50:04,VALID,1004.97,VALID,0,VALID,58.8644,VALID,1036.6,VALID,30.9936,VALID,124,VALID,2.30352,
2010-10-12, 01:51:04,VALID,1004.96,VALID,0,VALID,59.4061,VALID,1045.35,VALID,30.9741,VALID,145,VALID,1.93672,
2010-10-12, 01:52:04,VALID,1004.98,VALID,0,VALID,57.9337,VALID,1046.56,VALID,30.9351,VALID,134,VALID,4.38984,
2010-10-12, 01:53:04,VALID,1004.95,VALID,0,VALID,59.0323,VALID,1046.76,VALID,31.0521,VALID,96,VALID,2.20273,
2010-10-12, 01:54:04,VALID,1004.98,VALID,0,VALID,58.7119,VALID,1043.84,VALID,31.152,VALID,114,VALID,3.10898,
2010-10-12, 01:55:04,VALID,1004.94,VALID,0,VALID,59.3222,VALID,1038.21,VALID,31.1715,VALID,115,VALID,1.72461,
2010-10-12, 01:56:04,VALID,1004.88,VALID,0,VALID,59.2993,VALID,1040.02,VALID,31.1715,VALID,116,VALID,0.624219,
2010-10-12, 01:57:04,VALID,1004.91,VALID,0,VALID,58.3609,VALID,1037.41,VALID,31.4228,VALID,133,VALID,3.78125,
2010-10-12, 01:58:04,VALID,1004.87,VALID,0,VALID,57.1251,VALID,1029.87,VALID,31.2496,VALID,112,VALID,2.20664,
2010-10-12, 01:59:04,VALID,1004.81,VALID,0,VALID,58.4677,VALID,1013.98,VALID,31.2472,VALID,107,VALID,2.27187,
2010-10-12, 02:00:04,VALID,1004.82,VALID,0,VALID,58.6432,VALID,1011.46,VALID,31.152,VALID,156,VALID,2.00117,
2010-10-12, 02:01:04,VALID,1004.84,VALID,0,VALID,58.1168,VALID,1019.91,VALID,31.191,VALID,141,VALID,3.16797,
2010-10-12, 02:02:04,VALID,1004.81,VALID,0,VALID,60.169,VALID,1009.75,VALID,30.9155,VALID,161,VALID,2.92148,
2010-10-12, 02:03:04,VALID,1004.79,VALID,0,VALID,59.3374,VALID,1012.77,VALID,31.2105,VALID,113,VALID,2.05547,
2010-10-12, 02:04:04,VALID,1004.75,VALID,0,VALID,59.5663,VALID,1013.67,VALID,31.2082,VALID,99,VALID,1.575,
2010-10-12, 02:05:04,VALID,1004.74,VALID,0,VALID,59.4442,VALID,1006.84,VALID,31.3276,VALID,98,VALID,3.44492,
2010-10-12, 02:06:04,VALID,1004.75,VALID,0,VALID,60.9014,VALID,1014.08,VALID,31.3862,VALID,108,VALID,1.42773,
2010-10-12, 02:07:04,VALID,1004.7,VALID,0,VALID,61.649,VALID,1018.2,VALID,31.4813,VALID,111,VALID,0.857422,
2010-10-12, 02:08:04,VALID,1004.73,VALID,0,VALID,56.6673,VALID,1015.89,VALID,31.5789,VALID,117,VALID,2.21563,
2010-10-12, 02:09:04,VALID,1004.72,VALID,0,VALID,55.7366,VALID,1009.95,VALID,31.3471,VALID,145,VALID,3.54297,
2010-10-12, 02:10:04,VALID,1004.72,VALID,0,VALID,57.1708,VALID,992.958,VALID,31.1301,VALID,113,VALID,4.37617,
2010-10-12, 02:11:04,VALID,1004.66,VALID,0,VALID,59.1238,VALID,998.691,VALID,30.9936,VALID,134,VALID,1.97734,
2010-10-12, 02:12:04,VALID,1004.68,VALID,0,VALID,59.0246,VALID,986.623,VALID,30.9741,VALID,128,VALID,2.50312,
2010-10-12, 02:13:04,VALID,1004.67,VALID,0,VALID,60.4207,VALID,1014.98,VALID,30.8399,VALID,132,VALID,3.21445,
2010-10-12, 02:14:04,VALID,1004.62,VALID,0,VALID,58.5745,VALID,1016.19,VALID,30.9569,VALID,139,VALID,2.5793,
2010-10-12, 02:15:04,VALID,1004.58,VALID,0,VALID,57.476,VALID,1017.9,VALID,30.896,VALID,135,VALID,1.75469,
2010-10-12, 02:16:04,VALID,1004.55,VALID,0,VALID,57.9947,VALID,1015.59,VALID,31.035,VALID,115,VALID,2.10664,
2010-10-12, 02:17:04,VALID,1004.58,VALID,0,VALID,60.1079,VALID,1012.77,VALID,31.152,VALID,123,VALID,2.46211,
2010-10-12, 02:18:04,VALID,1004.59,VALID,0,VALID,56.2096,VALID,997.886,VALID,31.1325,VALID,129,VALID,3.05586,
2010-10-12, 02:19:04,VALID,1004.57,VALID,0,VALID,57.682,VALID,996.679,VALID,31.0326,VALID,128,VALID,2.47227,
2010-10-12, 02:20:04,VALID,1004.54,VALID,0,VALID,62.1525,VALID,993.26,VALID,31.2301,VALID,169,VALID,1.47305,
2010-10-12, 02:21:04,VALID,1004.58,VALID,0,VALID,57.4684,VALID,961.08,VALID,31.2472,VALID,126,VALID,3.20547,
2010-10-12, 02:22:04,VALID,1004.49,VALID,0,VALID,56.1791,VALID,931.414,VALID,30.9351,VALID,114,VALID,2.21133,
2010-10-12, 02:23:04,VALID,1004.49,VALID,0,VALID,58.3914,VALID,978.98,VALID,30.8765,VALID,133,VALID,0.682813,
2010-10-12, 02:24:04,VALID,1004.48,VALID,0,VALID,56.8199,VALID,995.473,VALID,30.9155,VALID,140,VALID,3.71797,
2010-10-12, 02:25:04,VALID,1004.47,VALID,0,VALID,57.9871,VALID,1013.57,VALID,30.9179,VALID,108,VALID,3.89453,
2010-10-12, 02:26:04,VALID,1004.46,VALID,0,VALID,57.8269,VALID,1010.46,VALID,30.7595,VALID,104,VALID,3.48008,
2010-10-12, 02:27:04,VALID,1004.43,VALID,0,VALID,58.1016,VALID,1002.91,VALID,30.7985,VALID,74,VALID,1.24727,
2010-10-12, 02:28:04,VALID,1004.44,VALID,0,VALID,57.7506,VALID,1002.41,VALID,30.9741,VALID,117,VALID,2.4418,
2010-10-12, 02:29:04,VALID,1004.42,VALID,0,VALID,58.2236,VALID,995.774,VALID,31.0154,VALID,109,VALID,3.63477,
2010-10-12, 02:30:04,VALID,1004.39,VALID,0,VALID,57.5904,VALID,969.326,VALID,31.1496,VALID,117,VALID,2.63789,
2010-10-12, 02:31:04,VALID,1004.42,VALID,0,VALID,54.3863,VALID,919.045,VALID,31.0716,VALID,107,VALID,2.50742,
2010-10-12, 02:32:04,VALID,1004.41,VALID,0,VALID,58.5364,VALID,923.369,VALID,31.1496,VALID,126,VALID,1.67305,
2010-10-12, 02:33:04,VALID,1004.37,VALID,0,VALID,54.4015,VALID,902.251,VALID,31.1301,VALID,134,VALID,1.9293,
2010-10-12, 02:34:04,VALID,1004.34,VALID,0,VALID,55.79,VALID,948.208,VALID,31.2448,VALID,148,VALID,2.87188,
2010-10-12, 02:35:04,VALID,1004.33,VALID,0,VALID,55.4086,VALID,972.142,VALID,31.2862,VALID,135,VALID,3.28281,
2010-10-12, 02:36:04,VALID,1004.34,VALID,0,VALID,57.9185,VALID,980.489,VALID,31.2643,VALID,158,VALID,3.29141,
2010-10-12, 02:37:04,VALID,1004.37,VALID,0,VALID,56.3088,VALID,994.366,VALID,31.2862,VALID,119,VALID,2.78203,
2010-10-12, 02:38:04,VALID,1004.3,VALID,0,VALID,57.3082,VALID,995.07,VALID,31.0497,VALID,88,VALID,1.64648,
2010-10-12, 02:39:04,VALID,1004.33,VALID,0,VALID,59.3374,VALID,986.12,VALID,31.1863,VALID,133,VALID,1.52383,
2010-10-12, 02:40:04,VALID,1004.36,VALID,0,VALID,57.0945,VALID,974.555,VALID,31.2643,VALID,102,VALID,2.80781,
2010-10-12, 02:41:04,VALID,1004.27,VALID,0,VALID,56.1333,VALID,986.724,VALID,31.3034,VALID,152,VALID,1.84375,
2010-10-12, 02:42:04,VALID,1004.28,VALID,0,VALID,55.8815,VALID,966.008,VALID,31.3619,VALID,138,VALID,1.01016,
2010-10-12, 02:43:04,VALID,1004.26,VALID,0,VALID,55.4314,VALID,990.646,VALID,31.4789,VALID,111,VALID,3.64375,
2010-10-12, 02:44:04,VALID,1004.22,VALID,0,VALID,57.0183,VALID,992.053,VALID,31.4033,VALID,136,VALID,2.21094,
2010-10-12, 02:45:04,VALID,1004.21,VALID,0,VALID,55.6298,VALID,990.947,VALID,31.4375,VALID,141,VALID,1.98516,
2010-10-12, 02:46:04,VALID,1004.16,VALID,0,VALID,55.523,VALID,985.014,VALID,31.5203,VALID,104,VALID,1.7918,
2010-10-12, 02:47:04,VALID,1004.13,VALID,0,VALID,56.6978,VALID,979.986,VALID,31.4447,VALID,118,VALID,1.44883,
2010-10-12, 02:48:04,VALID,1004.12,VALID,0,VALID,56.5987,VALID,969.427,VALID,31.5594,VALID,192,VALID,1.78242,
2010-10-12, 02:49:04,VALID,1004.11,VALID,0,VALID,57.0488,VALID,971.136,VALID,31.696,VALID,151,VALID,1.65586,
2010-10-12, 02:50:04,VALID,1004.09,VALID,0,VALID,56.3164,VALID,966.712,VALID,31.5789,VALID,155,VALID,3.18984,
2010-10-12, 02:51:04,VALID,1004.12,VALID,0,VALID,56.7131,VALID,972.444,VALID,31.5813,VALID,130,VALID,3.05312,
2010-10-12, 02:52:04,VALID,1004.08,VALID,0,VALID,58.6508,VALID,517.195,VALID,31.4813,VALID,141,VALID,2.35898,
2010-10-12, 02:53:04,VALID,1004.05,VALID,0,VALID,58.4143,VALID,1023.53,VALID,31.3862,VALID,112,VALID,3.19219,
2010-10-12, 02:54:04,VALID,1004.02,VALID,0,VALID,56.9877,VALID,1019.71,VALID,31.2691,VALID,117,VALID,3.86875,
2010-10-12, 02:55:04,VALID,1003.99,VALID,0,VALID,60.8022,VALID,1041.33,VALID,31.2105,VALID,140,VALID,1.62617,
2010-10-12, 02:56:04,VALID,1003.97,VALID,0,VALID,58.7195,VALID,957.56,VALID,31.2105,VALID,133,VALID,2.80469,
2010-10-12, 02:57:04,VALID,1003.98,VALID,0,VALID,58.2846,VALID,1031.17,VALID,31.4057,VALID,133,VALID,3.1875,
2010-10-12, 02:58:04,VALID,1003.93,VALID,0,VALID,58.9712,VALID,1003.32,VALID,31.5227,VALID,129,VALID,2.17969,
2010-10-12, 02:59:04,VALID,1003.94,VALID,0,VALID,55.9807,VALID,1025.24,VALID,31.5203,VALID,153,VALID,3.06602,
2010-10-12, 03:00:04,VALID,1003.93,VALID,0,VALID,57.1632,VALID,1012.67,VALID,31.4057,VALID,133,VALID,3.25508,
2010-10-12, 03:01:04,VALID,1003.94,VALID,0,VALID,58.2694,VALID,1034.89,VALID,31.4252,VALID,159,VALID,2.38008,
2010-10-12, 03:02:04,VALID,1003.92,VALID,0,VALID,57.0869,VALID,1019,VALID,31.3838,VALID,142,VALID,3.12266,
2010-10-12, 03:03:04,VALID,1003.93,VALID,0,VALID,58.75,VALID,771.62,VALID,31.3252,VALID,143,VALID,3.42461,
2010-10-12, 03:04:04,VALID,1003.89,VALID,0,VALID,59.284,VALID,741.652,VALID,31.1887,VALID,146,VALID,2.74766,
2010-10-12, 03:05:04,VALID,1003.93,VALID,0,VALID,57.2624,VALID,964.499,VALID,31.2277,VALID,147,VALID,3.60156,
2010-10-12, 03:06:04,VALID,1003.94,VALID,0,VALID,57.2776,VALID,968.522,VALID,31.0911,VALID,124,VALID,3.26133,
2010-10-12, 03:07:04,VALID,1003.87,VALID,0,VALID,58.5593,VALID,968.321,VALID,30.9764,VALID,162,VALID,2.88672,
2010-10-12, 03:08:04,VALID,1003.92,VALID,0,VALID,57.2929,VALID,967.516,VALID,30.9959,VALID,118,VALID,4.17578,
2010-10-12, 03:09:04,VALID,1003.87,VALID,0,VALID,57.3539,VALID,962.991,VALID,30.9936,VALID,148,VALID,3.65391,
2010-10-12, 03:10:04,VALID,1003.86,VALID,0,VALID,61.4735,VALID,953.94,VALID,30.9155,VALID,179,VALID,2.95742,
2010-10-12, 03:11:04,VALID,1003.81,VALID,0,VALID,60.0088,VALID,950.119,VALID,31.0911,VALID,182,VALID,2.98242,
2010-10-12, 03:12:04,VALID,1003.87,VALID,0,VALID,59.9859,VALID,945.895,VALID,31.1887,VALID,121,VALID,2.86914,
2010-10-12, 03:13:04,VALID,1003.83,VALID,0,VALID,57.3387,VALID,941.671,VALID,31.1715,VALID,112,VALID,3.93516,
2010-10-12, 03:14:04,VALID,1003.85,VALID,0,VALID,58.7882,VALID,939.057,VALID,30.9741,VALID,116,VALID,3.85195,
2010-10-12, 03:15:04,VALID,1003.84,VALID,0,VALID,61.2294,VALID,938.353,VALID,30.9936,VALID,128,VALID,2.10469,
2010-10-12, 03:16:04,VALID,1003.84,VALID,0,VALID,58.2846,VALID,937.85,VALID,30.9741,VALID,149,VALID,2.92617,
2010-10-12, 03:17:04,VALID,1003.79,VALID,0,VALID,58.7195,VALID,927.19,VALID,31.1106,VALID,157,VALID,3.28164,
2010-10-12, 03:18:04,VALID,1003.8,VALID,0,VALID,58.4067,VALID,924.676,VALID,31.2472,VALID,134,VALID,3.55234,
2010-10-12, 03:19:04,VALID,1003.79,VALID,0,VALID,58.6508,VALID,920.05,VALID,31.2082,VALID,146,VALID,3.27461,
2010-10-12, 03:20:04,VALID,1003.79,VALID,0,VALID,60.8556,VALID,912.609,VALID,31.0911,VALID,131,VALID,3.16367,
2010-10-12, 03:21:04,VALID,1003.71,VALID,0,VALID,60.8785,VALID,905.972,VALID,31.0326,VALID,173,VALID,2.80078,
2010-10-12, 03:22:04,VALID,1003.77,VALID,0,VALID,60.024,VALID,899.435,VALID,31.0154,VALID,144,VALID,4.35234,
2010-10-12, 03:23:04,VALID,1003.77,VALID,0,VALID,60.6343,VALID,884.149,VALID,30.896,VALID,157,VALID,3.35039,
2010-10-12, 03:24:04,VALID,1003.77,VALID,0,VALID,59.696,VALID,876.004,VALID,30.7205,VALID,140,VALID,4.1043,
2010-10-12, 03:25:04,VALID,1003.79,VALID,0,VALID,60.6038,VALID,884.451,VALID,30.818,VALID,123,VALID,2.87812,
2010-10-12, 03:26:04,VALID,1003.76,VALID,0,VALID,60.0393,VALID,898.932,VALID,30.896,VALID,144,VALID,2.87852,
2010-10-12, 03:27:04,VALID,1003.79,VALID,0,VALID,58.7347,VALID,900.642,VALID,30.9741,VALID,121,VALID,2.89375,
2010-10-12, 03:28:04,VALID,1003.78,VALID,0,VALID,59.3374,VALID,901.949,VALID,30.9179,VALID,110,VALID,2.38516,
2010-10-12, 03:29:04,VALID,1003.76,VALID,0,VALID,60.0622,VALID,904.262,VALID,31.0911,VALID,153,VALID,3.62617,
2010-10-12, 03:30:04,VALID,1003.75,VALID,0,VALID,59.8867,VALID,896.519,VALID,31.035,VALID,151,VALID,3.29414,
2010-10-12, 03:31:04,VALID,1003.75,VALID,0,VALID,59.2535,VALID,898.329,VALID,30.9155,VALID,139,VALID,4.78438,
2010-10-12, 03:32:04,VALID,1003.76,VALID,0,VALID,59.5358,VALID,899.536,VALID,30.9351,VALID,131,VALID,3.70586,
2010-10-12, 03:33:04,VALID,1003.77,VALID,0,VALID,60.0698,VALID,902.854,VALID,30.8984,VALID,158,VALID,3.6543,
2010-10-12, 03:34:04,VALID,1003.75,VALID,0,VALID,60.8708,VALID,901.547,VALID,30.8375,VALID,160,VALID,2.70898,